Regional Weather Roundup
Issued by NWS

Home | Current Version | Previous Version | Text Only | Print | Product List | Glossary Off
Versions: 1 2 3 4 5 6 7 8 9 10 11 12 13 14 15 16 17 18 19 20 21 22 23 24 25 26 27 28 29 30 31 32 33 34 35 36 37 38 39 40 41 42 43 44 45 46 47 48 49 50

458
ASUS43 KLMK 170610
RWRKY
KENTUCKY REGIONAL WEATHER ROUNDUP
NATIONAL WEATHER SERVICE LOUISVILLE KY
100 AM EST WED JAN 17 2018

NOTE "FAIR" INDICATES FEW OR NO CLOUDS BELOW 12,000 FEET
WITH NO SIGNIFICANT WEATHER AND/OR OBSTRUCTIONS TO VISIBILITY.

KYZ001>023-026-027-061>063-070>075-170700-
WESTERN AND SOUTH CENTRAL KENTUCKY

CITY           SKY/WX    TMP DP  RH WIND       PRES   REMARKS
PADUCAH        CLOUDY    11   3  70 N9        30.66F WCI  -2
HENDERSON      FLURRIES   9   4  80 NW8       30.66F WCI  -3
OWENSBORO      FLURRIES   8   3  80 W6        30.65F WCI  -2
HOPKINSVILLE   MOCLDY    -3  -7  81 CALM      30.63F
BOWLING GREEN  CLOUDY     7   1  76 NW6       30.63F WCI  -3
GLASGOW        CLOUDY     6   0  77 NW5       30.59F WCI  -3
$$

KYZ024-025-028>034-038-045-046-053-170700-
NORTH CENTRAL KENTUCKY

CITY           SKY/WX    TMP DP  RH WIND       PRES   REMARKS
LOUISVILLE/SDF FLURRIES   8   1  73 W7        30.61F WCI  -3
LOUISVILLE/LOU CLOUDY     8   1  73 NW5       30.62S WCI   0
FORT KNOX      CLOUDY     6   0  76 NW7       30.57F WCI  -6
$$

KYZ035>037-039>044-047>052-055>060-089>105-170700-
NORTHEAST KENTUCKY

CITY           SKY/WX    TMP DP  RH WIND       PRES   REMARKS
LEXINGTON      CLOUDY     8   1  73 NW6       30.53F WCI  -2
COVINGTON      FLURRIES   7   4  87 W7        30.53F WCI  -5
FRANKFORT      CLOUDY     7  -1  70 NW7       30.55F WCI  -5
$$

KYZ054-064>069-076>088-106>120-170700-
SOUTHEAST KENTUCKY

CITY           SKY/WX    TMP DP  RH WIND       PRES   REMARKS
JACKSON        FAIR       5   0  79 CALM      30.48F
LONDON         FAIR      -3  -8  79 CALM      30.51F
SOMERSET       FAIR      -4  -6  92 CALM      30.57F
MIDDLESBORO    FAIR       9   3  75 N6        30.50F WCI  -1
MONTICELLO     FLURRIES -17 -21  82 CALM      30.57F
$$





USA.gov is the U.S. government's official web portal to all federal, state and local government web resources and services.